Regional Weather Roundup
Issued by NWS

Home | Current Version | Previous Version | Graphics & Text | Print | Product List | Glossary On
Versions: 1 2 3 4 5 6 7 8 9 10 11 12 13 14 15 16 17 18 19 20 21 22 23 24 25 26 27 28 29 30 31 32 33 34 35 36 37 38 39 40 41 42 43 44 45 46 47 48 49 50
000
ASUS43 KIND 011109
RWRIN

WEATHER ROUNDUP FOR INDIANA
NATIONAL WEATHER SERVICE INDIANAPOLIS IN
700 AM EDT WED OCT 01 2014

NOTE: "FAIR" INDICATES FEW OR NO CLOUDS BELOW 12,000 FEET WITH NO
SIGNIFICANT WEATHER AND/OR OBSTRUCTIONS TO VISIBILITY.

* - STATION DOES NOT REPORT WEATHER SUCH AS PRECIPITATION OR FOG.

+ - STATION NOT QUALITY CONTROLLED BY THE NATIONAL WEATHER SERVICE.
    USE DATA WITH CAUTION...ESPECIALLY DEWPOINT AND RELATIVE
    HUMIDITY OBSERVATIONS.

INZ001>003-010>013-019-020-011200-
NORTHWEST INDIANA

CITY           SKY/WX    TMP DP  RH WIND       PRES   REMARKS
GARY /AIRPORT/ PTCLDY    48  46  93 E6        30.02S
KNOX *+        MOCLDY    39  38  94 SE3       30.01S
LA PORTE +     CLEAR     46  46  99 CALM      30.02S
MICHIGAN CITY+ PTCLDY    50  50 100 CALM      30.02S
MONTICELLO +   CLEAR     44  44  99 CALM      30.01R
RENSSELAER +   CLEAR     41  41 100 E3        30.01S FOG
VALPARAISO     CLEAR     44  43  96 E5        30.02S

$$

LMZ046-743>745-011200-
SOUTHERN LAKE MICHIGAN

STATION/POSITION TIME  TEMP WIND        PRES
                       AIR  DIR/SP/G
                 (UTC) (F)  (DEG/KT/KT) (MB)
MICHIGAN CITY    1100   53   80/  4/  5   N/A

$$

INZ004-005-014>016-021>024-011200-
NORTH CENTRAL INDIANA

CITY           SKY/WX    TMP DP  RH WIND       PRES   REMARKS
ELKHART        CLOUDY    54  46  76 CALM      30.03
LOGANSPORT +   CLEAR     41  41 100 CALM      30.03R FOG
PERU/GRISSOM   FOG       46  46 100 E5        30.01S VSB 1
ROCHESTER +    CLEAR     45  45 100 CALM      30.03R FOG
SOUTH BEND     NOT AVBL
WARSAW +       CLEAR     45  45 100 CALM      30.03R FOG

$$

INZ006>009-017-018-025>027-011200-
NORTHEAST INDIANA

CITY           SKY/WX    TMP DP  RH WIND       PRES   REMARKS
ANGOLA *+      PTCLDY    48  46  93 E5        30.03R
AUBURN +       FOG       45  43  93 CALM      30.03S VSB 1/2
FORT WAYNE     MOCLDY    49  47  93 NE3       30.03S FOG
HUNTINGTON +   CLOUDY    45  45 100 NE3       30.02R FOG

$$

INZ028-029-035-036-043>045-051>053-011200-
WEST CENTRAL INDIANA

CITY           SKY/WX    TMP DP  RH WIND       PRES   REMARKS
GREENCASTLE +  CLEAR     48  46  93 E3        30.00R
LAFAYETTE      CLEAR     43  43 100 E5        30.00S
TERRE HAUTE    CLEAR     50  47  89 E3        29.98R

$$

INZ030>032-037>040-046>048-054>057-064-065-011200-
CENTRAL INDIANA

CITY           SKY/WX    TMP DP  RH WIND       PRES   REMARKS
CP ATTERBURY + CLEAR     45  45 100 CALM      30.00S FOG
COLUMBUS       CLEAR     45  45 100 NE3       30.00
FRANKFORT +      N/A    N/A N/A N/A CALM      30.02R
INDIANAPOLIS   CLEAR     50  45  83 E7        29.99S
-EAGLE CREEK   CLEAR     48  44  86 NE3       30.00R
KOKOMO *+      CLOUDY    46  45  93 E5        30.02S VSB 1/2
MARION +       PTCLDY    45  45  98 E3        30.02R FOG
MT COMFORT *+  CLEAR     41 N/A N/A CALM      30.01S
SHELBYVILLE    CLEAR     45  42  89 CALM      30.00R
ZIONSVILLE +   CLEAR     42  39  91 CALM      30.02R FOG

$$

INZ033-034-041-042-049-050-058-059-011200-
EAST CENTRAL INDIANA

CITY           SKY/WX    TMP DP  RH WIND       PRES   REMARKS
MUNCIE         FOG       47  46  97 E7        30.01S VSB 1/4

$$

INZ060-061-067>069-081>083-085>088-011200-
SOUTHWEST INDIANA

CITY           SKY/WX    TMP DP  RH WIND       PRES   REMARKS
EVANSVILLE     CLEAR     59  57  93 NE5       29.95R
WASHINGTON +   CLEAR     54  54 100 CALM      29.96S

$$

INZ062-063-066-070>080-084-089>092-011200-
SOUTH CENTRAL AND SOUTHEAST INDIANA

CITY           SKY/WX    TMP DP  RH WIND       PRES   REMARKS
BLOOMINGTON    CLEAR     52  48  86 SE3       29.98R
SEYMOUR +      CLEAR     52  48  87 NE3       29.99R

$$



USA.gov is the U.S. government's official web portal to all federal, state and local government web resources and services.